Regional Weather Roundup
Issued by NWS

Home | Current Version | Previous Version | Text Only | Print | Product List | Glossary Off
Versions: 1 2 3 4 5 6 7 8 9 10 11 12 13 14 15 16 17 18 19 20 21 22 23 24 25 26 27 28

000
ASUS45 KBOU 190710
RWRCO

WEATHER ROUNDUP FOR COLORADO
NATIONAL WEATHER SERVICE DENVER/BOULDER CO
1200 AM MST SUN NOV 19 2017

NOTE: "FAIR" INDICATES FEW OR NO CLOUDS BELOW 12000 FEET WITH NO
SIGNIFICANT WEATHER AND/OR OBSTRUCTIONS TO VISIBILITY.

COZ001>005-013-030-031-190800-
...NORTHWEST COLORADO...

CITY           SKY/WX    TMP DP  RH WIND       PRES   REMARKS
CRAIG          FAIR      12   7  80 CALM      30.38S
HAYDEN         FAIR      16  10  77 E7        30.38F WCI   6
MEEKER         FAIR      15  10  80 MISG      30.38S
RABBIT EARS PA FAIR      14   7  73 SW7       30.31F WCI   4
STEAMBOAT SPGS FAIR      12   9  89 CALM      30.37F
WALDEN         FAIR      14   3  62 SE7       30.32S WCI   4
$$

COZ006>008-011-190800-
...WEST CENTRAL VALLEYS...

CITY           SKY/WX    TMP DP  RH WIND       PRES   REMARKS
GRAND JUNCTION FAIR      20  15  81 E5        30.40S WCI  13
MONTROSE       FAIR      24  18  77 SE12      30.43S WCI  13
EAGLE          FAIR      17  13  84 SE5       30.44S WCI  10
RIFLE          FAIR      23  16  74 CALM      30.43S
DELTA          FAIR      26  17  71 E3        30.43S
NUCLA          FAIR      23  14  68 E9        30.43S WCI  13
$$

COZ017>023-064>068-190800-
...SOUTHWEST COLORADO...

CITY           SKY/WX    TMP DP  RH WIND       PRES   REMARKS
DURANGO        FAIR      21  12  68 CALM      30.38S
CORTEZ         FAIR      16   9  74 E7        30.39S WCI   6
PAGOSA SPRINGS FAIR      22  15  74 CALM      30.39S
TELLURIDE      FAIR      23   7  49 SE8       30.40S WCI  14
WOLF CREEK PAS FAIR      23  -8  25 W7        30.45S WCI  15
$$

COZ009-010-012-014-032>034-037-058>063-190800-
...CENTRAL COLORADO...

CITY           SKY/WX    TMP DP  RH WIND       PRES   REMARKS
ASPEN          FAIR      11   6  81 S7        30.37S WCI   0
BUENA VISTA    FAIR      23   8  52 NW14      30.34S WCI  10
COPPER MTN     FAIR      23   0  36 MISG      30.34R
BERTHOUD PASS  FAIR      12   1  62 NW40G49   30.23F WCI -12
COTTONWOOD PAS FAIR      32   0  25 S3        30.33S
GUNNISON       FAIR      12   9  87 CALM      30.44S
KREMMLING      FAIR      18  12  79 CALM      30.40F
LEADVILLE      FAIR       7   0  73 NE6       30.32S WCI  -3
MONARCH PASS   FAIR      12   9  85 SW32      30.43S WCI -10
SALIDA         FAIR      29  11  47 NW13      30.40S WCI  18
SUNLIGHT       FAIR      18  -2  41 SW9       30.40F WCI   6
WILKERSON PASS FAIR      23  -6  28 SW7       30.35S WCI  15
$$

COZ069>075-190800-
...SAN LUIS VALLEY/SANGRE DE CRISTO MOUNTAINS...

CITY           SKY/WX    TMP DP  RH WIND       PRES   REMARKS
ALAMOSA        FAIR      15   9  76 CALM      30.37S
DEL NORTE      FAIR      18   9  68 W10       30.38S WCI   6
LA VETA PASS   FAIR      23   3  42 SW28G38     N/A  WCI   6
SAGUACHE       FAIR      19   5  53 NW13      30.39S WCI   7
$$

COZ035-036-038>040-190800-
...NORTHERN COLORADO FRONT RANGE...

CITY           SKY/WX    TMP DP  RH WIND       PRES   REMARKS
DENVER INTL AP FAIR      32  16  51 SW8       30.20F WCI  25
DMNS CITY PARK   N/A     33  18  55 E10       30.21S WCI  24
AURORA         PTCLDY    31  15  52 S9        30.21S WCI  23
FRONT RANGE AP FAIR      34  18  52 SW8       30.21F WCI  27
ERIE MUNI ARPT FAIR      22  18  84 SW6       30.27F WCI  15
BOULDER MUN AP FAIR      32  18  55 SW3       30.21S
CENTENNIAL     FAIR      29  16  58 S7        30.21F WCI  22
BROOMFIELD     FAIR      34  18  51 N5        30.21F WCI  30
FORT COLLINS   FAIR      26  19  74 NE3       30.23R
LONGMONT       FAIR      26  19  74 CALM      30.23F
$$

COZ041-046-047-076>085-087-088-190800-
...PIKES PEAK/PALMER DIVIDE AND SOUTHERN FOOTHILLS...

CITY           SKY/WX    TMP DP  RH WIND       PRES   REMARKS
COLO. SPRINGS  FAIR      23  16  74 N8        30.26S WCI  14
A. F. ACADEMY  FAIR      20  15  81 N9        30.24F WCI   9
SCHRIEVER AFB  FAIR      25  17  70 CALM      30.26S
CHEYENNE MTN   FAIR      33   8  34 CALM      30.19S
ELLICOTT       NOT AVBL
FALCON         FAIR      24  19  78 CALM      30.25S
FORT CARSON    FAIR      24  17  72 N6        30.24S WCI  17
LIMON          FAIR      14  12  92 N7        30.24F WCI   4
MONUMENT HILL  FAIR      27  12  54 SW13      30.24F WCI  16
CANON CITY     CLEAR     37  12  35 W16       30.23S
WALSENBURG     FAIR      36  10  35 SW3       30.25F
TRINIDAD       FAIR      34  20  56 W12       30.25F WCI  25
$$

COZ042>045-048>051-090-091-190800-
...NORTHEAST COLORADO...

CITY           SKY/WX    TMP DP  RH WIND       PRES   REMARKS
GREELEY ARPT   FAIR      22  16  78 W3        30.23S
AKRON          FAIR      28  14  55 S10       30.23S WCI  19
BURLINGTON     FAIR      18  11  74 SW7       30.27S WCI   9
WRAY           NOT AVBL
YUMA           FAIR      21  14  73 SW8       30.25F WCI  12
STERLING       FAIR      23  16  74 NW3       30.24R
HOLYOKE        FAIR      21  14  73 W8        30.25S WCI  12
FORT MORGAN    FAIR      24  12  60 E6        30.23S WCI  17
$$

COZ086-089-092>099-190800-
...SOUTHEAST COLORADO...

CITY           SKY/WX    TMP DP  RH WIND       PRES   REMARKS
PUEBLO         FAIR      26  22  84 CALM      30.25F
LA JUNTA       FAIR      26  17  68 N3        30.25S
LAMAR          FAIR      20  11  68 E8        30.25F WCI  10
SPRINGFIELD      N/A     28  18  66 S8        30.25F WCI  20
$$




USA.gov is the U.S. government's official web portal to all federal, state and local government web resources and services.